Wetbulb
48.01 48.32 49.09 49.22 49.56 49.11 44.93 41.19 32.82 43.33 45.76 34.01 32.94 32.01 35.99 41.14 40.02 43.72 41.70 40.12 38.18 36.38 37.46 35.51 35.34 35.58 38.77 41.71 41.69 38.24 40.21 35.64 29.17 32.67 39.44 41.30 38.93 35.00 34.82 27.89 27.02 29.95 29.05 29.44
47.08 47.61 47.63 46.60 48.79 49.05 41.50 36.77 34.71 43.31 42.75 28.83 30.28 33.71 36.01 39.71 39.33 40.07 38.63 37.13 38.75 39.05 35.41 32.37 35.53 36.56 41.26 41.20 39.33 38.91 39.13 32.31 26.89 28.17 33.49 36.92 34.04 35.89 36.86 35.51 33.41 27.20 23.71 27.61
46.09 46.65 47.18 46.96 47.53 48.56 43.95 35.91 29.05 34.21 34.51 34.47 33.32 32.10 32.96 35.18 40.51 39.45 40.31 38.47 39.15 36.41 34.42 37.22 33.84 35.43 38.73 40.83 40.28 40.65 39.93 34.89 29.53 24.21 28.53 32.57 29.94 33.30 35.81 33.24 24.75 26.02 26.96 31.33
45.51 45.89 46.43 47.23 47.17 47.91 43.00 37.06 33.12 32.26 26.94 29.64 33.03 35.36 34.97 32.90 34.54 39.09 40.05 37.05 36.17 34.43 30.73 33.06 31.79 36.07 37.53 38.74 38.53 37.94 36.66 28.56 32.58 34.03 34.76 33.88 32.40 32.90 34.04 32.43 31.43 25.36 29.42 29.23
44.59 45.03 46.24 47.04 47.60 48.12 38.63 32.38 34.19 37.57 32.09 32.62 31.61 32.62 35.63 33.29 34.99 36.39 34.28 34.18 36.55 36.21 32.37 33.69 30.06 35.77 34.87 32.73 34.83 35.64 36.30 28.44 31.44 28.82 33.72 32.43 29.29 31.69 31.26 31.99 32.12 31.52 30.35 28.42
44.58 44.80 45.71 46.27 47.21 45.51 34.56 38.99 39.84 37.04 33.23 33.28 30.59 29.43 32.14 34.68 36.70 38.64 38.66 36.57 36.04 35.61 36.66 37.92 37.79 38.51 39.23 37.32 32.96 31.26 30.76 28.87 27.34 23.46 30.98 30.27 22.84 29.30 31.44 32.41 31.67 32.29 25.92 30.56
44.33 44.91 46.17 46.14 46.31 45.52 41.49 40.55 38.28 35.56 29.84 32.32 31.62 33.75 33.80 35.36 36.79 35.33 38.68 38.62 35.97 39.43 42.08 39.66 39.58 38.46 37.63 36.23 35.79 36.68 30.84 28.82 27.58 24.57 24.57 16.83 28.43 34.28 34.02 30.51 29.75 31.54 31.55 31.10
44.69 45.25 45.67 46.02 45.70 45.84 42.21 43.58 40.43 36.97 30.27 34.00 34.51 34.78 34.59 36.04 37.83 37.02 37.51 40.03 41.42 41.65 37.26 30.28 26.97 26.37 28.52 31.69 35.33 34.75 35.36 29.88 24.14 20.75 21.63 26.87 29.08 31.41 27.43 24.55 25.85 29.19 28.77 30.41
44.77 45.28 45.86 45.95 45.63 46.09 43.86 42.59 43.08 38.48 33.36 30.17 36.85 34.34 36.11 33.44 33.56 34.25 35.59 40.84 40.97 38.34 30.43 26.56 23.72 20.75 24.80 24.30 28.53 35.03 33.51 32.87 25.16 24.07 18.89 15.27 24.29 32.94 34.96 32.94 19.45 27.87 27.09 26.62
45.30 45.20 45.01 44.08 46.49 47.24 43.76 41.29 43.12 40.09 32.97 35.49 37.88 35.05 34.47 38.52 35.47 32.61 33.17 33.07 33.73 35.99 26.63 23.35 24.12 25.03 30.81 23.36 24.34 24.48 25.46 25.70 23.93 23.06 20.51 24.29 32.10 34.45 36.15 18.03 18.93 27.53 28.26 26.39
44.40 45.01 45.25 44.16 46.81 46.69 43.52 41.09 43.38 40.91 33.85 35.37 39.70 39.70 36.96 38.16 36.44 30.94 32.36 29.57 30.90 30.10 26.45 27.78 27.26 27.80 28.73 27.94 27.02 26.77 24.86 23.52 22.46 23.76 19.81 17.76 30.56 31.79 25.42 24.51 28.70 27.72 27.93 25.76
44.44 45.00 44.91 44.95 46.02 46.26 44.08 39.44 43.78 45.38 36.38 36.99 41.44 41.02 41.93 41.13 41.42 35.01 33.99 32.61 32.30 32.60 29.56 29.13 30.56 28.56 27.80 28.51 23.94 33.52 21.73 24.83 23.95 25.22 23.19 29.21 30.53 28.85 32.31 32.03 27.71 27.87 27.41 27.53
44.78 45.05 46.10 46.07 45.81 45.55 44.04 41.04 42.37 41.91 37.63 37.34 36.97 36.66 40.79 43.46 42.24 43.89 33.25 34.89 37.63 35.49 37.72 33.29 32.13 28.28 29.92 23.77 23.99 28.02 32.09 34.92 24.97 25.39 26.81 27.28 28.94 31.08 31.27 30.63 28.82 28.55 28.66 27.37
45.22 45.48 45.28 45.02 45.11 44.66 44.24 40.50 42.89 42.36 39.45 31.66 32.40 42.43 39.71 43.45 42.99 42.57 41.42 39.29 39.47 38.09 37.21 32.53 31.77 28.76 34.56 28.32 30.34 27.61 30.89 32.40 27.57 26.95 28.18 28.71 29.16 29.71 29.41 29.12 29.11 28.08 26.50 25.40
44.61 44.75 44.54 44.44 44.61 44.24 43.33 42.64 43.15 44.43 38.67 29.48 31.20 38.20 41.17 42.34 41.61 40.87 40.58 38.96 36.05 34.26 31.39 29.96 28.82 32.12 31.34 33.07 31.15 28.38 33.37 28.11 23.95 25.17 28.68 28.59 27.34 29.61 29.74 28.00 27.38 28.37 26.88 26.78
44.33 44.65 44.87 44.58 44.53 45.24 40.70 32.96 42.97 43.98 42.38 32.94 28.50 36.79 37.95 40.51 40.87 39.74 38.79 38.04 36.11 34.88 31.93 30.59 34.64 37.52 31.77 26.23 25.67 32.56 33.73 34.19 34.15 28.56 30.82 28.87 30.29 30.50 30.50 28.47 28.95 28.52 27.78 27.08
44.23 44.36 44.03 44.02 44.79 41.98 36.42 35.44 38.87 41.17 41.19 33.50 27.81 28.40 36.16 39.66 39.65 37.61 36.71 38.08 35.72 35.40 31.06 29.79 30.97 32.05 33.80 26.30 23.94 30.78 33.02 31.70 30.93 31.12 30.11 28.04 29.67 27.96 30.52 30.79 30.28 30.44 28.89 28.20
44.40 44.61 44.82 45.02 44.67 43.05 37.72 39.24 41.92 40.93 39.49 37.36 28.18 27.71 29.80 38.13 32.12 31.15 36.28 33.50 34.63 33.32 31.70 31.58 30.59 30.91 31.12 24.96 27.83 31.17 32.10 31.85 31.42 32.15 32.09 30.66 31.58 31.01 30.43 29.89 29.16 27.60 26.72 26.75
44.10 44.18 44.36 41.47 40.22 36.89 36.25 40.81 41.43 43.24 39.16 30.00 29.61 25.60 22.47 36.06 32.98 33.66 32.99 34.33 27.50 33.31 29.14 29.78 30.12 26.12 24.14 29.07 28.44 28.81 29.98 31.16 31.36 32.76 31.53 31.29 29.47 28.98 27.94 28.08 27.85 26.11 25.47 25.25
43.86 40.88 37.13 32.58 37.78 40.41 40.89 39.78 34.61 34.72 34.31 35.06 29.28 33.02 26.74 33.29 30.49 29.60 29.69 29.96 27.68 24.89 27.66 31.42 25.02 23.58 32.52 33.53 31.69 31.42 32.78 33.32 33.78 29.22 28.00 28.81 27.39 27.05 27.02 27.36 27.68 26.93 25.49 24.44
37.22 35.28 32.72 36.99 40.67 38.73 36.11 28.75 28.61 30.10 27.75 31.62 32.81 30.91 28.83 35.01 27.18 27.36 31.24 26.83 26.86 22.58 25.28 24.03 22.48 22.17 26.65 31.70 31.27 32.10 34.10 33.73 33.59 32.62 30.09 29.31 28.98 27.21 27.03 27.53 27.35 26.67 25.43 22.07
38.19 37.91 39.43 38.84 36.85 31.98 27.82 26.05 27.81 27.50 26.10 30.04 29.46 30.73 32.68 32.97 36.30 27.79 28.49 25.68 25.37 22.75 28.02 22.72 17.19 27.27 29.48 29.94 31.71 32.22 32.58 32.79 33.07 33.15 31.40 29.21 29.45 28.89 27.59 25.49 23.84 21.67 20.27 17.72
39.13 36.73 33.17 31.93 28.98 19.21 20.08 17.52 23.51 24.03 29.02 30.90 31.36 28.44 30.75 32.35 32.54 25.68 25.39 17.40 18.28 28.44 17.41 18.65 24.02 30.44 32.28 32.41 31.82 30.93 31.65 32.24 31.98 31.07 30.15 29.01 28.09 27.14 24.87 21.58 19.79 19.29 17.57 16.13
31.15 27.47 16.58 22.21 18.82 23.67 26.73 29.19 26.66 28.70 30.09 32.10 31.09 28.27 27.15 26.91 24.36 23.91 17.40 22.34 24.72 14.81 14.23 20.99 26.29 30.72 31.08 31.79 32.03 31.48 31.51 31.38 28.67 27.51 26.02 23.60 22.11 21.54 21.76 20.96 19.99 18.20 15.49 13.26
28.81 28.74 19.53 22.13 27.78 28.03 31.01 28.67 29.51 30.64 32.93 31.20 28.53 27.54 27.41 23.25 17.89 23.76 22.89 16.70 14.78 17.70 22.59 26.01 29.63 31.08 30.61 30.69 31.08 30.25 28.35 26.28 24.31 23.96 22.45 21.13 20.83 19.53 18.32 18.52 17.36 16.65 15.16 12.98
30.07 29.30 25.36 27.09 24.73 27.48 30.26 31.05 31.16 33.62 30.69 29.92 29.26 25.42 20.42 19.99 23.11 21.16 16.92 21.16 19.06 23.39 26.56 29.23 30.20 29.18 29.32 29.13 29.27 28.68 27.37 25.77 23.08 21.82 22.37 21.09 19.60 18.50 18.17 16.54 15.58 14.29 13.56 10.24
28.97 26.80 31.63 31.77 29.34 29.65 30.32 32.40 29.32 33.95 29.51 26.66 25.92 19.32 22.41 24.93 21.99 22.93 24.13 20.77 26.09 26.95 27.63 29.30 29.47 28.53 27.85 27.28 26.16 25.47 23.93 22.64 22.08 21.37 21.15 20.78 20.71 18.38 17.37 15.28 16.24 17.55 14.84 11.04
MSLP
1008.90 1009.26 1009.42 1009.83 1010.33 1011.27 1011.88 1012.08 1012.19 1012.28 1012.35 1012.81 1012.10 1010.55 1009.55 1008.01 1007.29 1006.62 1006.14 1006.30 1006.11 1006.14 1005.85 1006.12 1006.33 1006.60 1007.02 1007.17 1006.81 1007.28 1008.07 1009.00 1008.97 1008.39 1008.11 1008.21 1008.55 1009.14 1010.09 1011.51 1011.95 1011.92 1011.70 1012.32
1008.40 1008.69 1008.97 1009.41 1009.85 1010.58 1011.44 1011.49 1012.26 1012.18 1012.33 1011.81 1011.40 1010.39 1009.31 1008.16 1007.18 1006.79 1006.65 1005.92 1005.91 1005.87 1006.09 1006.41 1006.55 1006.74 1007.39 1007.59 1007.86 1008.35 1008.65 1009.53 1009.23 1008.46 1008.46 1008.18 1008.05 1008.18 1009.03 1010.06 1011.07 1011.46 1011.87 1012.39
1007.78 1008.05 1008.47 1008.91 1009.13 1009.79 1010.25 1010.97 1011.77 1012.02 1012.22 1011.69 1010.85 1010.05 1009.14 1008.57 1007.58 1006.39 1005.90 1005.55 1005.90 1006.25 1006.32 1006.35 1006.74 1007.51 1007.79 1007.89 1007.79 1008.51 1008.58 1008.49 1008.29 1008.24 1008.46 1008.47 1008.00 1008.04 1008.40 1009.28 1010.33 1010.83 1011.45 1012.13
1007.20 1007.34 1007.71 1008.15 1008.58 1009.02 1010.15 1009.89 1009.58 1010.11 1010.89 1010.75 1010.32 1009.70 1008.58 1007.94 1007.01 1005.78 1005.51 1005.76 1005.78 1006.45 1006.81 1006.59 1006.89 1007.50 1008.19 1008.26 1008.31 1008.87 1009.36 1009.34 1008.72 1008.33 1008.44 1008.18 1008.23 1007.79 1008.17 1008.78 1009.53 1010.51 1011.22 1012.47
1006.56 1006.71 1006.95 1007.30 1007.77 1008.31 1009.34 1009.18 1009.26 1009.08 1008.88 1009.14 1009.64 1009.15 1007.76 1007.13 1006.51 1006.21 1005.69 1005.59 1005.85 1006.22 1006.45 1006.70 1007.09 1007.62 1008.63 1008.17 1008.70 1009.11 1009.55 1009.72 1009.32 1009.19 1008.80 1008.53 1008.70 1008.55 1008.69 1009.15 1009.76 1010.54 1012.14 1014.03
1005.65 1005.90 1006.40 1006.56 1006.60 1008.06 1008.92 1008.92 1008.13 1008.51 1008.26 1008.23 1008.72 1007.91 1007.01 1006.17 1005.72 1005.30 1004.93 1005.07 1005.71 1005.91 1006.20 1006.94 1007.22 1007.63 1007.91 1008.33 1008.76 1009.36 1009.79 1009.96 1009.97 1010.03 1009.48 1009.34 1009.58 1009.64 1009.74 1010.44 1011.51 1011.88 1013.03 1014.70
1004.79 1005.20 1005.51 1006.02 1006.43 1007.25 1007.78 1007.60 1007.96 1008.02 1007.58 1007.23 1006.86 1006.50 1006.44 1005.94 1005.61 1006.00 1005.37 1005.21 1005.70 1006.66 1006.53 1007.27 1007.71 1008.09 1008.72 1008.83 1009.13 1009.19 1009.75 1010.38 1010.36 1010.22 1010.10 1010.60 1010.58 1010.66 1011.05 1012.05 1013.55 1013.98 1014.73 1015.89
1003.85 1004.24 1004.79 1005.46 1006.09 1006.74 1007.42 1007.17 1007.75 1007.98 1007.54 1006.89 1006.35 1006.14 1005.80 1005.86 1005.75 1006.32 1006.22 1005.60 1005.73 1006.47 1007.01 1008.30 1009.06 1008.97 1009.11 1009.05 1008.88 1009.16 1009.58 1010.04 1010.53 1010.98 1011.23 1011.51 1011.47 1011.86 1012.56 1013.16 1015.26 1015.93 1016.46 1017.30
1002.92 1003.48 1004.13 1004.71 1005.44 1005.99 1006.57 1007.22 1007.60 1008.16 1007.71 1006.84 1006.36 1005.57 1005.20 1005.88 1006.57 1006.90 1006.94 1006.32 1005.92 1006.54 1007.93 1008.92 1009.39 1009.47 1009.11 1009.21 1009.24 1009.39 1009.73 1010.10 1011.09 1011.54 1012.14 1012.40 1012.72 1012.69 1013.26 1014.06 1016.10 1017.05 1017.68 1018.37
1002.10 1002.93 1003.54 1004.06 1004.11 1005.15 1006.33 1007.19 1007.68 1007.83 1007.53 1006.98 1006.36 1005.36 1005.54 1005.75 1006.47 1007.02 1006.79 1006.34 1006.58 1006.95 1008.31 1009.32 1009.37 1009.16 1008.55 1008.95 1009.20 1009.65 1010.23 1010.91 1011.70 1012.36 1012.90 1013.59 1013.47 1013.48 1014.04 1015.73 1017.58 1017.79 1018.57 1019.28
1001.80 1002.43 1003.04 1003.65 1003.73 1004.94 1006.00 1007.07 1007.45 1007.59 1007.70 1006.95 1005.33 1005.20 1005.28 1005.59 1005.94 1006.39 1006.66 1006.85 1007.20 1007.94 1008.57 1009.08 1009.16 1009.37 1008.69 1008.96 1009.39 1009.55 1010.46 1011.52 1012.45 1013.21 1013.84 1014.76 1014.73 1014.81 1015.52 1016.73 1017.74 1018.42 1019.37 1020.13
1001.25 1002.01 1002.82 1003.52 1004.23 1005.04 1006.09 1006.97 1007.22 1007.29 1007.76 1007.30 1006.51 1006.05 1005.61 1005.39 1005.17 1005.21 1005.97 1006.12 1006.66 1007.23 1007.74 1008.32 1008.79 1009.15 1008.94 1009.15 1009.82 1009.91 1010.86 1011.46 1012.72 1014.27 1014.94 1015.55 1015.85 1016.15 1016.55 1017.10 1018.25 1019.19 1020.02 1020.88
1000.25 1001.57 1002.38 1003.32 1004.37 1005.25 1006.21 1006.70 1007.21 1007.41 1007.36 1007.01 1006.29 1005.85 1005.27 1005.01 1004.52 1004.32 1005.14 1005.61 1006.10 1006.66 1006.91 1007.72 1007.98 1008.31 1008.63 1009.34 1009.75 1010.45 1011.06 1011.52 1013.05 1014.41 1015.81 1016.31 1016.81 1017.18 1017.57 1018.14 1018.95 1019.91 1020.66 1021.42
1000.31 1001.40 1002.59 1003.71 1004.68 1005.46 1006.19 1006.54 1007.03 1007.05 1007.15 1006.99 1006.27 1005.41 1005.07 1004.55 1004.38 1004.50 1004.73 1005.38 1005.76 1006.45 1007.06 1007.76 1008.05 1008.43 1008.46 1009.24 1009.59 1010.25 1010.62 1011.67 1013.30 1014.89 1015.87 1016.72 1017.34 1017.83 1018.34 1019.05 1019.78 1020.48 1021.38 1022.03
1001.29 1002.19 1003.15 1004.08 1004.91 1005.63 1006.23 1006.75 1006.98 1006.76 1007.20 1006.77 1006.38 1005.67 1005.19 1004.85 1004.87 1005.07 1005.20 1005.62 1006.26 1006.96 1007.61 1007.88 1008.32 1008.25 1008.69 1009.20 1009.97 1010.96 1011.13 1011.89 1013.00 1013.76 1014.48 1015.56 1017.02 1018.05 1018.81 1019.37 1019.99 1020.71 1021.42 1022.15
1002.04 1002.73 1003.50 1004.27 1005.07 1005.77 1006.55 1007.03 1006.53 1006.19 1006.53 1006.44 1006.82 1006.41 1005.90 1005.52 1005.41 1005.55 1005.87 1006.19 1006.52 1006.95 1007.36 1007.90 1008.22 1008.14 1008.77 1010.06 1011.22 1011.80 1011.84 1012.11 1012.32 1013.83 1014.76 1015.52 1016.92 1018.05 1018.81 1019.37 1019.98 1020.71 1021.41 1022.09
1002.59 1003.31 1004.06 1004.78 1005.33 1006.11 1006.30 1006.28 1006.12 1005.90 1006.17 1006.41 1007.33 1007.29 1006.76 1006.50 1006.25 1006.45 1006.52 1006.36 1006.70 1007.11 1007.59 1008.12 1008.46 1008.69 1008.83 1010.10 1011.59 1012.23 1012.66 1013.10 1013.60 1014.24 1015.03 1016.64 1017.38 1017.97 1018.75 1019.22 1019.92 1020.72 1021.48 1022.14
1003.07 1003.74 1004.42 1005.06 1005.62 1005.99 1005.93 1005.70 1005.65 1005.92 1005.89 1006.02 1006.93 1007.81 1007.84 1007.16 1007.18 1007.32 1007.15 1007.34 1007.47 1007.82 1008.21 1008.31 1008.86 1009.12 1009.41 1011.23 1012.06 1012.45 1013.07 1013.59 1014.20 1014.54 1014.82 1015.96 1017.02 1018.02 1018.79 1019.49 1020.10 1020.84 1021.54 1022.16
1003.67 1004.23 1004.92 1005.65 1006.04 1005.92 1005.66 1005.40 1005.39 1005.40 1005.87 1006.07 1006.76 1007.58 1007.92 1007.56 1007.65 1007.71 1007.92 1007.95 1008.77 1008.60 1008.88 1009.09 1009.15 1009.81 1010.37 1010.97 1012.08 1012.79 1013.26 1013.68 1014.29 1014.88 1015.53 1016.35 1017.26 1018.15 1019.06 1019.69 1020.30 1021.03 1021.81 1022.57
1004.17 1004.51 1005.11 1005.61 1005.50 1005.54 1005.53 1005.67 1005.62 1005.66 1005.72 1005.94 1006.69 1007.06 1007.71 1007.76 1007.89 1008.41 1008.77 1008.77 1009.19 1009.65 1009.69 1009.53 1010.32 1010.90 1010.78 1011.07 1011.92 1012.71 1013.19 1013.77 1014.28 1015.04 1015.91 1016.57 1017.45 1018.38 1019.16 1019.82 1020.52 1021.39 1022.27 1023.16
1004.84 1005.11 1005.28 1005.51 1005.49 1005.69 1005.85 1006.30 1006.37 1006.37 1006.56 1006.56 1006.99 1007.08 1007.51 1007.73 1008.16 1008.63 1008.91 1009.37 1009.60 1009.95 1010.30 1010.42 1011.12 1011.62 1011.82 1011.88 1012.58 1013.10 1013.59 1014.22 1014.77 1015.27 1016.02 1016.87 1017.69 1018.54 1019.37 1020.18 1021.04 1022.01 1022.95 1024.04
1004.06 1004.24 1004.88 1005.37 1005.83 1006.20 1006.54 1006.94 1006.93 1006.81 1006.88 1006.82 1007.27 1007.42 1007.64 1007.87 1007.96 1009.21 1009.48 1010.00 1010.39 1010.94 1010.65 1011.21 1011.76 1012.47 1012.33 1012.57 1013.10 1013.74 1014.14 1014.68 1015.23 1015.79 1016.55 1017.39 1018.20 1019.00 1019.98 1021.11 1022.11 1023.09 1024.03 1024.94
1004.33 1004.55 1005.34 1005.82 1006.51 1006.93 1007.30 1007.67 1007.47 1007.52 1007.28 1007.27 1007.39 1007.98 1008.42 1008.64 1009.08 1010.03 1010.55 1011.12 1011.40 1011.19 1011.80 1012.07 1012.51 1012.85 1013.16 1013.41 1013.83 1014.41 1014.77 1015.27 1015.90 1016.63 1017.33 1018.19 1019.18 1020.05 1021.15 1022.32 1023.17 1023.96 1024.92 1025.76
1005.08 1005.76 1006.62 1007.22 1007.49 1007.69 1007.89 1007.81 1007.70 1007.92 1007.84 1007.91 1008.44 1008.95 1009.69 1009.97 1010.55 1011.00 1011.52 1011.86 1011.80 1012.22 1012.42 1012.55 1012.91 1013.26 1013.78 1014.16 1014.73 1015.14 1015.89 1016.36 1017.01 1017.76 1018.48 1019.42 1020.36 1021.51 1022.36 1023.03 1023.76 1024.50 1025.57 1026.50
1005.92 1006.46 1007.49 1008.02 1008.36 1008.52 1008.52 1008.30 1008.24 1008.20 1008.06 1008.31 1009.06 1009.67 1010.06 1010.99 1011.47 1011.51 1011.94 1012.44 1012.52 1012.51 1012.68 1012.83 1013.21 1013.73 1014.28 1014.85 1015.45 1016.04 1016.73 1017.43 1018.23 1018.92 1019.63 1020.51 1021.31 1022.24 1023.26 1023.89 1024.43 1025.09 1025.95 1026.80
1007.00 1007.80 1008.29 1008.56 1008.81 1009.17 1009.17 1009.13 1008.95 1008.57 1008.69 1008.64 1009.27 1010.11 1010.80 1011.18 1011.35 1011.86 1011.98 1012.16 1012.52 1013.03 1013.18 1013.47 1013.86 1014.36 1014.96 1015.55 1016.13 1016.72 1017.44 1018.14 1019.11 1019.85 1020.45 1021.18 1022.00 1022.82 1023.71 1024.47 1025.02 1025.66 1026.25 1027.11
1007.96 1008.90 1008.94 1008.97 1009.33 1009.62 1009.70 1009.67 1009.69 1009.16 1009.31 1009.78 1009.75 1010.15 1010.56 1010.73 1011.24 1011.73 1011.75 1012.53 1012.95 1013.35 1013.79 1014.11 1014.52 1015.06 1015.71 1016.31 1016.90 1017.56 1018.22 1018.93 1019.73 1020.46 1021.14 1021.82 1022.54 1023.34 1024.09 1024.80 1025.49 1025.98 1026.60 1027.08
Wind_Speed
11 11 11 14 19 16 7 2 4 4 2 5 3 8 6 4 12 16 7 6 8 9 8 8 8 8 6 5 5 15 4 1 5 8 3 7 9 17 14 3 3 2 5 2
12 12 11 9 14 20 5 4 2 2 1 6 7 4 13 13 9 13 6 8 7 3 3 2 2 4 3 1 4 4 8 4 3 1 3 3 5 4 6 6 4 5 2 2
15 14 15 14 15 21 5 4 5 1 1 1 4 7 8 8 12 12 14 5 10 2 5 5 2 3 4 4 3 1 2 2 4 5 3 1 3 10 10 6 3 1 3 5
15 14 16 17 16 21 5 4 3 6 6 10 7 8 5 16 9 8 13 9 8 6 5 6 7 4 2 3 5 1 3 3 3 3 6 7 8 3 5 8 5 5 5 9
17 17 18 19 20 22 5 3 4 6 4 13 18 13 8 16 17 9 16 8 8 10 7 4 2 8 6 4 5 5 1 3 0 3 8 4 5 6 5 4 5 1 15 11
19 20 20 16 20 14 3 3 3 4 2 8 12 17 17 8 13 10 10 9 9 7 8 6 4 6 6 2 7 5 6 3 4 3 7 3 3 2 3 9 13 4 5 8
19 20 19 19 16 17 2 4 2 2 2 4 13 13 20 16 11 8 9 5 6 3 9 4 7 8 6 9 7 5 1 5 2 1 6 5 4 7 9 13 11 10 11 10
20 20 19 20 21 24 6 2 3 1 4 4 8 17 11 18 8 4 7 4 8 10 8 6 4 3 3 2 3 7 8 3 2 3 3 6 6 3 3 5 4 6 6 11
20 20 19 24 21 22 5 2 3 1 2 5 8 7 12 4 4 3 3 9 5 6 5 4 4 5 5 5 5 7 5 3 4 1 3 5 3 8 7 3 2 6 7 4
17 19 18 15 21 27 8 3 2 3 2 4 8 3 5 7 5 4 6 4 4 5 3 2 3 3 8 7 8 6 4 1 3 2 2 2 1 6 3 5 4 8 5 4
16 17 17 12 20 24 7 3 3 0 1 5 6 6 3 4 5 5 7 6 3 2 3 3 2 1 1 3 2 7 5 5 3 3 2 4 7 1 3 6 7 9 8 9
20 19 16 23 20 22 10 2 2 3 2 1 3 8 3 2 3 5 4 7 5 5 3 2 3 4 1 6 3 3 1 5 5 2 2 5 7 7 3 8 10 8 9 10
26 22 23 23 20 21 10 2 2 2 2 2 3 2 3 3 3 2 4 2 4 2 3 2 2 2 4 3 2 4 3 4 5 4 5 7 7 8 10 10 11 10 9 11
25 24 23 22 20 20 8 3 1 2 2 2 2 1 2 2 5 7 4 6 5 4 3 1 1 3 3 1 3 4 5 6 7 6 9 10 8 8 10 11 11 12 10 10
22 23 23 21 19 19 5 3 2 1 1 3 2 3 6 5 5 6 6 6 4 2 1 2 1 1 4 2 4 3 3 6 5 4 15 4 11 12 13 12 12 12 13 12
18 18 19 18 17 14 3 2 2 6 3 3 3 3 3 6 6 7 4 2 1 1 4 2 2 2 4 3 3 4 6 7 3 6 8 12 16 13 12 12 12 11 12 12
19 20 19 17 14 6 2 3 3 1 2 3 3 2 4 4 0 2 2 3 2 2 1 3 4 1 2 3 3 7 11 12 15 16 20 12 13 9 12 13 13 15 12 12
17 17 16 16 12 3 2 3 2 1 2 2 4 1 3 2 2 2 2 1 3 5 1 3 3 2 2 4 5 11 10 13 13 8 8 13 13 13 12 12 12 13 11 10
16 18 18 6 1 3 2 1 5 2 2 3 3 5 3 2 1 2 3 2 3 2 1 1 4 1 0 7 12 11 8 6 8 11 14 16 15 14 13 12 12 11 9 9
14 4 4 1 2 2 1 3 3 4 2 2 3 3 1 4 0 1 3 2 3 2 3 3 4 1 2 9 11 11 9 9 9 14 14 15 15 13 12 10 11 10 10 10
2 2 2 1 3 1 1 1 3 1 2 2 1 4 5 2 3 2 1 2 1 2 4 5 1 0 2 10 11 8 10 8 9 8 8 9 11 10 8 10 11 11 11 10
4 5 4 3 2 1 4 1 2 1 3 1 4 4 3 2 3 4 4 2 3 1 2 4 0 0 5 8 11 10 9 8 7 10 11 10 9 9 11 11 11 10 11 10
2 3 3 3 4 5 4 3 2 3 1 1 3 3 2 4 4 3 4 4 1 1 3 2 1 5 5 8 8 8 8 8 9 9 10 13 12 14 13 11 10 11 10 8
2 4 4 2 1 2 3 3 2 3 3 5 4 3 4 1 5 1 5 3 3 3 1 3 3 7 7 8 8 11 8 9 11 12 13 14 14 12 10 10 10 11 10 8
4 4 3 3 1 3 2 2 3 3 2 4 3 3 4 1 4 1 3 4 2 4 1 1 5 8 8 9 9 10 10 10 10 10 11 12 12 11 10 8 8 10 10 8
4 6 3 1 4 3 3 3 3 4 2 3 4 3 3 1 4 3 4 2 1 2 2 3 6 8 8 8 8 9 9 11 9 8 10 11 10 11 10 9 8 8 9 8
4 3 1 3 4 4 3 3 3 4 4 1 3 4 3 1 1 3 2 2 2 3 2 3 6 8 8 8 9 8 9 10 9 9 9 10 10 11 11 11 8 9 7 6
Wind_Direction
236 234 231 221 203 187 140 217 211 146 214 178 236 209 210 210 251 247 257 243 220 237 249 245 258 187 219 327 355 205 160 77 223 217 154 229 220 220 205 177 238 326 346 108
242 236 207 217 216 191 136 172 171 160 151 204 211 241 240 242 236 221 215 222 208 268 263 237 309 107 173 223 42 251 140 187 202 278 9 274 240 216 164 185 151 219 257 107
243 237 225 218 230 202 152 142 173 137 130 288 232 209 225 226 268 243 226 222 243 221 249 208 219 133 198 240 181 244 165 248 196 170 167 285 228 238 215 157 125 197 279 130
246 243 237 222 220 202 157 225 166 180 181 217 215 220 239 218 229 259 211 211 206 182 236 225 225 154 148 234 116 160 107 258 269 313 193 181 286 319 248 214 190 152 229 123
242 245 243 226 212 183 152 190 184 176 281 200 202 218 202 231 220 220 215 187 207 206 220 216 193 138 208 173 143 169 98 279 73 338 270 194 253 314 307 307 319 20 116 104
244 239 240 227 201 162 147 228 269 160 285 193 182 213 220 250 238 226 228 200 204 225 212 117 326 121 161 220 148 162 152 167 113 232 223 309 322 350 1 84 44 17 60 118
239 238 232 202 190 186 183 197 80 308 253 214 201 208 210 233 243 224 262 118 110 107 111 149 79 129 144 147 145 132 218 166 244 208 90 202 121 53 77 96 62 42 86 106
233 231 216 206 190 197 207 103 134 223 248 288 245 220 219 223 253 239 215 207 136 172 100 67 62 14 77 192 190 197 190 170 140 140 176 116 142 51 133 139 85 48 61 118
228 213 222 197 207 213 155 79 94 238 253 232 302 262 226 150 147 143 241 225 151 118 114 124 153 182 178 170 185 218 226 213 129 162 158 207 196 142 122 77 172 76 67 26
204 202 200 214 216 179 155 120 171 241 256 273 309 175 183 139 114 112 228 111 83 82 98 121 162 218 181 172 173 177 160 107 174 231 204 130 250 76 99 87 204 104 85 44
209 207 199 198 163 168 141 134 234 359 256 336 12 52 96 138 144 154 195 70 335 72 121 145 179 183 235 82 201 158 150 166 178 203 168 195 8 315 194 141 103 108 96 93
216 199 195 183 188 165 138 135 215 108 109 291 300 98 348 87 294 135 182 161 155 178 142 197 144 163 52 141 149 50 102 163 136 28 102 74 53 88 73 120 125 108 107 111
193 196 172 153 152 154 158 120 76 149 243 266 119 302 293 234 249 119 127 54 118 61 141 163 197 145 123 144 193 97 114 153 94 154 133 116 111 98 94 104 107 115 116 116
124 131 139 144 151 160 161 116 7 242 111 108 350 261 81 322 49 61 58 121 64 94 77 102 156 117 44 96 152 114 188 113 122 81 122 127 131 118 113 112 114 113 111 121
133 139 147 154 159 168 121 85 256 217 198 137 136 42 8 53 98 97 84 92 100 114 67 75 123 88 73 56 79 25 16 154 158 199 163 128 142 135 141 135 136 133 136 127
133 143 148 140 157 145 104 55 310 237 162 97 71 296 40 35 49 62 82 165 216 177 129 137 69 348 105 101 82 105 60 55 125 126 102 110 126 135 143 142 146 138 135 133
130 127 133 158 154 152 163 171 201 41 89 101 76 59 351 341 41 22 0 11 26 79 92 52 132 194 94 89 120 115 101 100 98 107 107 109 139 142 151 149 136 134 131 131
130 143 136 127 106 57 309 218 208 70 184 102 100 85 44 316 315 38 352 30 35 5 128 14 101 14 61 82 110 113 115 117 129 158 104 133 135 140 144 135 136 140 137 135
123 121 115 89 161 221 203 281 294 221 142 123 109 134 183 140 310 112 360 84 50 280 47 60 73 327 154 160 145 133 142 131 149 121 129 130 143 141 145 149 144 135 127 114
120 90 68 54 225 121 77 348 28 10 324 25 102 97 143 115 148 319 69 13 160 113 253 68 69 165 116 120 134 139 134 142 141 135 142 151 142 149 152 154 139 135 127 123
100 162 109 172 95 47 163 104 101 291 34 89 238 123 123 270 104 179 113 194 338 92 262 113 219 25 110 110 126 142 129 137 140 129 126 126 136 141 145 131 131 131 123 112
190 141 137 137 185 58 94 95 353 98 155 44 120 152 138 21 81 88 330 104 42 92 273 72 43 37 107 103 119 124 127 128 123 129 124 123 123 118 107 106 109 104 113 115
31 52 52 80 340 61 127 173 262 70 30 319 82 57 117 40 53 37 73 63 191 124 51 205 79 112 107 106 108 97 102 112 114 107 104 103 101 101 112 111 112 114 109 110
104 105 40 94 307 60 35 24 87 241 88 85 88 47 98 71 49 350 86 251 56 15 196 175 143 135 126 119 118 116 115 102 103 106 107 107 109 106 111 119 126 123 122 117
52 34 63 66 75 45 18 339 41 341 105 81 56 40 85 45 76 44 95 28 252 188 55 86 128 129 130 125 125 120 114 113 109 116 114 113 116 115 111 113 113 117 123 117
62 35 53 57 76 86 87 52 28 357 31 48 67 127 69 234 129 105 214 174 130 110 88 93 117 114 124 121 118 116 119 117 111 112 119 118 119 126 121 109 113 114 122 128
51 31 320 72 65 65 54 31 358 327 57 197 104 78 197 123 105 185 38 94 89 124 93 107 129 130 125 115 109 108 113 112 117 119 119 120 117 117 122 127 131 131 131 129